Location: Bermeries
(50.2863°N, 3.7551°E)
Time: 02:50:48
(UTC+00:00)

Cosmos 2181 Rocket - Pass Details

Date: 23 May 2024
Orbit: 951 x 1015 km, 82.9° (Epoch: 21 June)

Event Time Altitude Azimuth Distance (km) Brightness Sun altitude
Rises 01:48:00 0° 351° (N) 3,748 7.9 -13.8°
Reaches altitude 10° 01:50:35 10° 354° (N) 2,787 7.2 -13.6°
Maximum altitude 01:56:58 66° 77° (ENE) 1,078 4.4 -13.0°
Drops below altitude 10° 02:03:11 10° 160° (SSE) 2,725 6.0 -12.5°
Sets 02:05:41 0° 163° (SSE) 3,660 6.6 -12.3°
